Tuscaloosa, AL

3:43 AM CDT on October 17, 2017 (GMT -0500)
Tuscaloosa Municipal

Weather History for KTCL - June, 2013

Change the Weather History Date:

Thursday, June 27, 2013

  Actual Average Record
Temperature  
Mean Temperature 85 °F 80 °F  
Max Temperature 96 °F 91 °F 105 °F (1954)
Min Temperature 74 °F 70 °F 55 °F (1974)
Cooling Degree Days 19    
Growing Degree Days 34 (Base 50)    
Moisture  
Dew Point 75 °F    
Average Humidity 75    
Maximum Humidity 94    
Minimum Humidity 56    
Precipitation  
Precipitation 0.00 in 0.17 in 1.00 in (2002)
Month to date precipitation 4.95 4.27  
Year to date precipitation 26.91 27.67  
Sea Level Pressure  
Sea Level Pressure 29.93 in    
Wind  
Wind Speed 6 mph (WSW)    
Max Wind Speed 13 mph    
Max Gust Speed 23 mph    
Visibility 9 miles    
Events      
T = Trace of Precipitation, MM = Missing Value Source: NWS Daily Summary

Daily Weather History Graph

Daily Weather History Graph

Search for Another Location

Airport or City:

Trip Planner

Search our weather history database for the weather conditions in past years. The results will help you decide how hot, cold, wet, or windy it might be!

Date:

Astronomy

Jun. 27, 2013 Rise Set
Actual Time 5:43 AM CDT 8:03 PM CDT
Civil Twilight 5:14 AM CDT 8:32 PM CDT
Nautical Twilight 4:39 AM CDT 9:07 PM CDT
Astronomical Twilight 4:00 AM CDT 9:46 PM CDT
Moon 11:18 PM CDT (6/27) 10:28 AM CDT (6/27)
Length of Visible Light 15h 17m
Length of Day
14h 20m
Waning Gibbous, 76% of the Moon is Illuminated
Jun 27
Waning Gibbous
Jun 29
Last Quarter
Jul 8
New
Jul 15
First Quarter
Jul 22
Full

Hourly Weather History & Observations

Time (CDT) Temp. Heat Index Dew Point Humidity Pressure Visibility Wind Dir Wind Speed Gust Speed Precip Events Conditions
12:53 AM 75.9 °F - 73.0 °F 91% 29.97 in 10.0 mi Calm Calm - N/A   Clear
1:53 AM 75.9 °F - 72.0 °F 87% 29.97 in 10.0 mi Calm Calm - N/A   Clear
2:53 AM 75.9 °F - 73.0 °F 91% 29.99 in 10.0 mi Calm Calm - N/A   Mostly Cloudy
3:53 AM 75.0 °F - 73.0 °F 94% 29.98 in 8.0 mi South 3.5 mph - N/A   Clear
4:53 AM 75.0 °F - 73.0 °F 94% 29.98 in 7.0 mi Calm Calm - N/A   Clear
5:53 AM 75.0 °F - 73.0 °F 94% 29.98 in 8.0 mi Calm Calm - N/A   Partly Cloudy
6:53 AM 75.9 °F - 73.9 °F 94% 29.96 in 7.0 mi SSW 4.6 mph - N/A   Partly Cloudy
7:53 AM 79.0 °F - 73.9 °F 84% 29.99 in 9.0 mi SW 4.6 mph - N/A   Overcast
8:53 AM 81.0 °F 85.8 °F 73.0 °F 77% 29.99 in 10.0 mi WSW 4.6 mph - N/A   Overcast
9:53 AM 86.0 °F 93.8 °F 73.9 °F 67% 29.97 in 10.0 mi West 12.7 mph 19.6 mph N/A   Clear
10:53 AM 90.0 °F 101.3 °F 75.9 °F 63% 29.96 in 10.0 mi West 12.7 mph 17.3 mph N/A   Clear
11:53 AM 91.0 °F 101.6 °F 75.0 °F 59% 29.94 in 10.0 mi West 12.7 mph 23.0 mph N/A   Partly Cloudy
12:53 PM 91.0 °F 100.4 °F 73.9 °F 57% 29.93 in 10.0 mi West 11.5 mph 21.9 mph N/A   Overcast
1:53 PM 93.9 °F 105.4 °F 75.0 °F 54% 29.91 in 10.0 mi WNW 12.7 mph 19.6 mph N/A   Scattered Clouds
2:53 PM 93.9 °F 105.4 °F 75.0 °F 54% 29.90 in 10.0 mi West 11.5 mph - N/A   Clear
3:53 PM 93.0 °F 104.6 °F 75.0 °F 56% 29.88 in 10.0 mi WSW 11.5 mph - N/A   Scattered Clouds
4:53 PM 93.9 °F 106.9 °F 75.9 °F 56% 29.87 in 9.0 mi West 10.4 mph 17.3 mph N/A   Clear
5:53 PM 93.9 °F 105.4 °F 75.0 °F 54% 29.85 in 9.0 mi West 6.9 mph - N/A   Clear
6:53 PM 91.9 °F 103.9 °F 75.9 °F 59% 29.86 in 9.0 mi West 6.9 mph - N/A   Clear
7:53 PM 87.1 °F 98.8 °F 77.0 °F 72% 29.87 in 9.0 mi SW 3.5 mph - N/A   Clear
8:53 PM 84.9 °F 95.3 °F 77.0 °F 77% 29.88 in 10.0 mi Calm Calm - N/A   Clear
9:53 PM 82.9 °F 91.8 °F 77.0 °F 82% 29.88 in 9.0 mi Calm Calm - N/A   Clear
10:53 PM 84.9 °F 94.1 °F 75.9 °F 74% 29.88 in 10.0 mi West 4.6 mph - N/A   Clear
11:53 PM 82.0 °F 89.4 °F 75.9 °F 82% 29.88 in 9.0 mi South 3.5 mph - N/A   Clear